{"data":{"norad_id":61580,"epoch":"2026-05-24T19:58:03.515232Z","epoch_age_seconds":89329,"freshness":"FRESH","line1":"1 61580U 24187G   26144.83198513  .00000050  00000+0  52673-5 0  9999","line2":"2 61580  53.1595 280.5781 0000792  58.1099 301.9996 15.69715853 92762","mean_motion":15.69715853,"eccentricity":7.92e-5,"inclination_deg":53.1595,"raan_deg":280.5781,"arg_perigee_deg":58.1099,"mean_anomaly_deg":301.9996,"bstar":5.2673e-6,"rev_number":9276,"period_min":91.736348158038,"perigee_km":359.17636394372,"apogee_km":360.24363890875,"semimajor_km":6737.8470014262,"source":"CELESTRAK","updated_at":"2026-05-25T13:38:19.402983Z"}}